Dewpoint
11 11 13 13 13 12 8 7 8 7 2 -7 -10 -16 -17 -19 -18 -15 -13 -11 -8 -7 -7 -6 -6 -7 -0 7 8 8 9 9 10 9 8 6 6 6 7 7 6 6 6
9 12 13 13 12 11 7 9 8 5 -5 -9 -16 -17 -19 -16 -13 -11 -7 -7 -8 -9 -9 -8 -5 -2 4 3 6 7 8 9 9 8 5 -2 2 3 4 5 6 6 6
11 13 13 13 12 7 9 9 7 -3 -7 -13 -17 -18 -16 -13 -9 -7 -8 -10 -10 -10 -10 -9 -2 5 2 1 2 7 8 8 8 6 3 -6 -5 -2 -0 1 2 4 6
10 13 13 12 9 8 9 9 1 -5 -10 -16 -17 -16 -12 -8 -6 -8 -10 -9 -7 -6 -4 -5 -3 4 0 2 2 5 7 7 6 2 0 0 -2 -6 -3 2 3 3 2
10 13 13 11 8 10 10 5 -4 -7 -15 -16 -15 -12 -7 -7 -8 -10 -9 -7 -5 -4 -3 -3 -3 -3 -1 2 3 4 6 6 3 2 2 2 1 -7 -6 -5 -0 3 2
12 13 12 9 10 10 7 -2 -5 -11 -16 -15 -12 -7 -7 -8 -9 -9 -7 -6 -4 -3 -3 -3 -3 -3 -3 -1 2 3 3 4 4 4 4 2 1 -1 -6 -6 -4 -3 -2
13 12 9 11 11 8 -1 -3 -8 -14 -14 -12 -8 -7 -8 -9 -9 -8 -7 -5 -4 -3 -3 -3 -2 -1 -1 -1 -1 0 2 3 1 1 0 0 -1 -2 -3 -8 -6 -3 -3
12 10 12 11 8 1 -2 -5 -10 -13 -12 -9 -7 -8 -9 -9 -8 -7 -6 -5 -3 -3 -2 -2 -1 -0 1 1 1 2 1 1 1 0 1 0 -0 -0 -1 -3 -8 -5 -2
11 12 11 9 5 2 -1 -6 -11 -12 -9 -5 -7 -8 -8 -7 -7 -6 -5 -4 -4 -3 -2 -2 -2 1 2 2 2 2 2 1 1 1 1 1 0 -0 -1 -2 -4 -7 -4
11 9 8 5 4 2 -1 -6 -11 -9 -3 -5 -7 -7 -7 -6 -6 -5 -4 -3 -2 -2 -1 -1 1 2 3 3 3 1 0 -2 -1 -2 -1 -1 -1 0 -1 -3 -3 -6 -7
10 9 7 7 4 3 -2 -7 -8 -3 -4 -5 -6 -6 -4 -4 -3 -4 -4 -2 -1 2 3 2 3 3 4 4 3 1 -0 -1 -1 -3 -5 -1 0 0 -2 -3 -4 -5 -6
9 7 6 9 4 1 -3 -6 -3 -2 -4 -3 1 1 3 5 4 4 2 4 4 5 4 4 4 4 4 4 3 2 1 1 0 -2 -3 1 0 -1 -2 -4 -2 -3 -6
6 9 10 6 4 -0 -4 -4 0 -1 5 6 7 7 6 7 7 7 7 6 5 5 5 4 5 5 5 3 3 2 1 -0 -4 -5 -5 -4 -3 -3 -0 -4 -1 -2 -3
7 10 8 6 2 -2 -4 0 1 1 5 8 9 9 8 9 9 8 7 6 5 5 5 5 5 5 5 3 2 -0 -4 -9 -7 -5 -8 -6 -5 -5 -4 -1 -1 -2 -2
7 10 9 6 1 -3 2 4 4 6 7 8 9 10 9 8 9 8 7 6 6 5 5 5 5 5 4 0 -0 -4 -12 -13 -9 -9 -9 -7 -6 -5 -2 -1 -1 0 1
9 9 10 5 -1 0 6 7 8 8 9 7 8 9 8 9 9 9 7 7 6 5 5 5 5 3 0 0 -1 -10 -18 -14 -10 -12 -8 -6 -5 -4 -1 -1 -1 -1 0
8 10 9 7 7 8 9 9 9 9 10 9 7 6 7 9 9 9 6 7 6 6 5 5 2 0 0 -0 -6 -12 -11 -10 -11 -12 -9 -6 -6 -0 -0 -1 -1 -1 -2
9 10 9 7 7 8 9 9 10 10 9 8 6 4 4 6 8 7 7 7 7 6 5 2 0 1 0 -3 -8 -10 -10 -11 -7 -7 -6 -5 -4 -1 -0 -0 -4 -5 -5
11 10 8 7 7 8 10 10 10 9 8 6 4 5 5 5 6 7 7 6 5 3 1 1 1 1 -2 -6 -8 -8 -8 -10 -7 -6 -6 -4 -5 -5 -3 -6 -6 -7 -7
8 0 6 6 7 10 10 9 8 8 5 4 5 5 5 7 7 6 5 2 1 1 1 1 1 -0 -5 -7 -7 -6 -5 -8 -10 -11 -7 -5 -6 -7 -7 -8 -9 -9 -10
6 -3 -0 5 8 7 9 9 7 7 5 4 6 5 6 6 5 1 -0 1 1 1 2 1 0 -5 -7 -7 -6 -4 -5 -6 -8 -7 -8 -9 -9 -8 -8 -8 -9 -10 -11
7 5 0 2 4 7 8 7 6 5 4 5 6 6 5 3 -0 1 1 1 2 2 1 -1 -5 -4 -6 -4 -3 -3 -4 -6 -7 -4 -5 -5 -6 -8 -8 -11 -9 -9 -10
7 7 6 5 6 7 8 7 7 6 7 7 6 5 4 2 1 1 2 2 1 -1 -3 -4 -3 -3 -2 -2 -3 -2 -3 -3 -2 -3 -5 -6 -7 -6 -6 -8 -11 -9 -9
7 7 8 8 8 8 9 7 7 7 8 7 5 4 2 2 1 3 2 -1 -2 -2 -2 -2 -2 -1 -2 -3 -3 -2 -2 -2 -2 -3 -5 -4 -4 -6 -5 -7 -9 -10 -10
7 8 9 9 10 10 9 8 9 8 6 4 3 4 3 2 3 3 1 -1 -1 -1 -1 -1 -2 -3 -6 -7 -4 -4 -4 -3 -3 -3 -2 -3 -4 -4 -5 -7 -9 -10 -10
8 9 9 10 10 10 9 9 10 8 5 4 4 4 4 4 2 2 1 0 -1 -1 -2 -3 -6 -14 -19 -12 -7 -5 -3 -3 -3 -3 -4 -3 -4 -5 -5 -6 -7 -7 -9
Wind_Speed
31 31 31 30 28 25 23 22 21 19 17 16 16 18 20 21 21 21 20 21 21 22 23 23 23 23 23 22 19 18 18 17 20 21 20 20 18 15 13 13 12 13 12
35 34 34 32 29 28 24 21 20 18 17 17 19 21 22 21 21 21 21 22 24 26 26 26 26 26 25 21 16 17 16 16 18 20 24 24 18 16 13 13 12 13 12
35 35 33 32 30 28 25 21 19 18 18 20 21 21 21 21 20 22 23 25 27 29 29 29 27 27 25 23 22 22 19 16 18 21 24 25 21 16 14 13 13 12 12
35 35 35 34 31 27 24 22 20 19 20 21 21 22 21 21 22 24 25 26 27 29 31 30 28 24 23 26 26 23 20 19 19 20 21 22 24 20 16 14 13 12 12
34 35 34 33 31 27 24 22 20 20 22 22 21 21 21 22 23 25 25 26 27 27 28 28 27 24 20 22 25 23 17 16 17 18 18 20 22 23 18 16 13 12 12
35 35 33 31 31 27 23 21 20 21 23 23 21 21 22 24 25 25 24 24 24 24 24 23 22 21 22 18 17 18 18 19 16 16 16 19 20 21 22 16 13 12 11
35 33 31 26 27 27 22 20 20 21 22 22 21 21 23 24 24 23 22 21 21 21 20 19 17 17 17 19 17 17 13 12 15 15 16 17 17 18 18 19 16 12 10
34 30 29 27 24 24 21 19 20 21 21 22 22 23 24 24 23 21 20 19 18 17 16 14 14 14 15 15 15 15 12 9 10 13 16 17 17 17 17 16 14 12 11
27 29 30 29 25 20 16 18 20 21 21 22 23 23 23 22 21 18 17 16 14 13 11 10 10 10 12 15 13 15 11 9 11 12 14 16 19 19 17 16 15 11 9
32 32 37 36 32 22 19 18 19 21 21 22 22 23 22 20 17 15 14 13 11 10 9 8 9 9 10 12 14 15 12 11 11 13 14 16 18 18 19 18 16 14 12
12 24 33 25 21 22 21 21 20 21 22 23 22 21 19 17 14 12 11 10 10 10 8 6 4 5 9 11 17 18 18 18 18 17 17 14 15 18 21 19 17 14 11
21 25 28 20 22 22 21 22 23 24 23 21 19 18 17 15 12 11 11 11 10 8 5 1 3 4 7 10 16 15 18 16 17 17 17 11 16 16 18 20 16 16 13
28 24 23 21 23 21 22 23 24 24 22 19 15 14 13 12 12 11 12 11 6 7 3 3 1 5 7 10 13 15 16 15 17 14 13 12 13 16 11 18 14 15 15
29 27 24 22 22 21 22 24 24 24 20 16 16 13 11 11 10 11 12 10 8 6 5 4 4 6 8 11 12 13 16 18 14 13 13 12 13 14 12 15 13 15 16
30 27 24 23 24 24 23 24 24 21 18 18 16 14 11 9 8 10 10 9 10 9 8 6 7 9 11 12 13 15 15 12 13 14 15 13 14 15 13 10 10 8 10
31 29 27 24 24 25 26 23 22 20 20 16 15 13 11 11 11 9 9 10 10 9 9 10 13 11 12 13 16 15 13 13 15 15 11 11 8 11 9 9 8 9 7
31 31 29 25 24 26 24 21 20 21 18 16 13 12 11 11 11 12 12 12 12 11 12 14 11 12 13 16 15 14 12 13 16 14 12 10 7 4 4 3 5 6 7
30 32 28 27 25 27 23 24 23 21 19 15 11 8 6 12 14 16 14 13 12 12 12 10 12 14 16 16 17 18 16 14 9 9 10 7 4 3 4 4 8 10 10
32 34 35 32 30 28 26 28 26 21 17 15 10 7 6 12 15 13 11 11 11 9 9 12 14 16 17 19 20 19 17 18 6 6 6 4 5 3 1 6 10 12 14
30 32 36 36 33 28 27 25 23 22 20 15 11 8 6 12 12 11 10 10 8 9 10 12 14 18 19 21 20 19 21 2 11 10 8 9 9 10 10 13 14 14 13
28 33 37 36 33 28 28 27 27 26 23 16 12 10 9 12 11 12 11 8 9 9 10 14 17 18 19 19 20 22 20 4 10 2 19 15 18 20 20 20 19 17 15
30 30 31 33 30 28 26 26 25 24 22 16 13 12 13 13 13 13 10 10 10 11 14 16 16 17 17 19 20 23 8 18 9 26 11 24 20 19 18 20 19 18 18
35 32 28 27 29 28 28 26 26 23 21 20 18 17 18 16 14 11 9 10 12 14 15 15 16 17 18 20 21 16 9 7 25 16 27 13 10 20 26 24 21 21 19
39 33 29 29 29 26 29 29 26 25 25 23 22 19 18 16 13 11 12 13 14 15 16 17 18 19 21 22 18 17 18 19 22 21 10 20 22 19 24 26 25 23 23
39 36 31 29 26 19 22 28 25 19 20 19 20 19 18 16 16 16 15 13 13 16 18 17 18 21 23 22 21 19 21 22 24 24 28 23 25 25 21 21 23 22 26
35 33 30 29 24 22 24 31 28 23 21 22 23 23 19 18 17 16 14 13 15 17 18 19 22 22 21 22 22 22 20 21 23 25 29 29 28 27 24 21 23 24 25
Wind_Direction
173 166 163 161 158 155 154 148 141 135 127 118 111 112 106 103 100 96 91 88 87 86 84 83 83 84 82 75 70 73 65 63 66 65 54 52 55 51 51 48 45 41 34
167 164 165 164 161 156 155 148 140 133 127 118 117 113 108 104 100 95 91 90 90 88 85 84 85 85 79 65 66 65 63 60 68 50 41 35 46 51 50 53 48 44 36
166 164 163 162 160 158 153 147 138 134 126 122 120 114 110 105 101 100 99 98 95 91 87 84 86 87 75 60 61 70 77 67 55 46 34 29 33 37 42 44 44 44 40
165 165 164 163 159 155 151 144 142 135 127 123 120 117 112 110 108 105 104 102 98 94 89 85 86 89 80 62 68 70 65 61 49 42 36 33 30 30 32 35 39 35 35
169 166 164 162 157 153 148 144 142 136 130 126 121 115 112 111 110 110 108 103 98 94 91 89 89 90 91 70 70 70 66 54 49 37 32 23 24 26 25 26 29 30 30
166 165 163 163 154 146 145 145 141 136 133 127 122 118 118 117 114 113 107 102 98 93 89 84 78 78 82 80 57 57 59 59 47 36 26 18 17 17 15 13 17 22 26
165 163 159 160 148 140 142 140 140 137 131 126 124 124 125 121 117 113 108 104 99 93 89 85 79 69 62 71 62 52 56 54 39 29 19 13 9 5 3 3 1 359 9
159 157 154 154 138 133 136 139 140 139 134 131 132 133 128 123 119 116 112 106 99 94 90 88 81 76 67 59 65 47 43 34 26 19 16 8 2 355 358 357 353 351 352
149 156 137 131 125 128 133 151 146 141 138 136 136 130 127 125 123 120 118 113 107 99 89 79 69 60 54 40 35 27 36 20 5 7 1 354 349 343 347 348 342 340 336
133 117 120 118 126 148 158 151 146 142 140 135 133 132 128 127 127 126 118 110 107 100 92 82 67 50 24 22 11 16 31 19 13 358 347 342 337 340 342 341 338 338 332
102 116 125 132 146 173 159 152 147 144 139 141 137 135 131 126 118 120 116 113 107 103 97 83 69 37 12 357 360 5 3 7 1 356 351 351 340 335 335 338 336 336 332
137 127 136 165 168 171 161 153 151 149 146 146 143 133 132 128 112 110 113 112 112 123 130 76 28 2 354 350 355 357 355 355 349 344 343 343 333 331 329 332 331 336 341
143 166 163 171 177 171 166 156 153 148 147 145 145 139 137 131 126 119 125 124 146 165 171 182 329 335 336 341 346 348 338 336 334 337 334 336 336 329 329 324 327 334 334
159 171 172 175 178 174 167 159 155 155 153 148 153 161 151 148 146 161 151 163 185 188 201 211 260 293 325 331 339 331 328 329 340 342 334 323 333 329 325 320 326 334 330
166 173 172 176 177 171 164 159 158 160 164 172 173 172 178 169 178 178 179 194 199 200 206 241 275 294 304 317 324 327 331 330 334 329 319 307 324 329 312 306 326 355 337
168 169 172 167 167 170 165 169 168 170 180 185 188 187 181 195 198 199 213 205 203 213 246 261 299 306 318 323 328 327 330 332 327 320 301 299 339 347 312 313 318 330 348
168 174 174 171 169 172 171 176 186 186 189 196 200 197 206 211 218 214 230 236 236 246 266 277 302 310 312 310 318 341 344 337 322 326 318 288 317 301 276 280 321 327 326
175 176 177 179 183 186 192 193 190 196 204 200 200 186 202 223 222 227 239 235 244 253 271 289 300 303 310 324 344 348 350 356 335 332 344 1 314 167 218 292 325 323 319
180 182 187 186 189 193 189 190 198 206 203 199 209 257 244 222 220 221 223 233 248 266 285 293 299 310 326 333 339 341 344 344 322 329 319 360 30 58 166 328 323 319 319
189 188 191 189 191 193 194 201 209 213 206 214 248 278 264 207 207 205 218 236 253 268 278 291 308 325 327 328 334 336 338 357 335 303 296 302 308 306 305 310 316 323 327
186 186 189 190 193 198 203 210 214 215 220 237 265 270 223 205 203 216 224 236 256 275 298 316 321 320 320 325 331 330 339 220 331 45 321 299 302 302 305 305 306 305 306
196 194 194 196 200 203 208 213 217 222 231 253 258 219 204 216 213 220 235 261 288 301 310 309 309 313 321 328 324 327 324 315 237 322 321 321 308 303 308 305 305 306 305
203 201 201 203 207 209 209 210 218 224 235 238 227 208 205 208 213 224 254 274 283 290 295 297 311 318 319 317 316 316 318 292 309 314 318 314 283 303 305 297 300 298 300
208 210 211 206 206 213 212 216 222 230 233 227 215 205 212 220 220 241 253 266 281 290 298 301 308 310 309 310 305 305 305 299 306 310 313 302 304 301 300 291 298 301 302
209 212 211 213 215 213 218 217 215 224 231 219 206 213 218 214 228 246 261 266 273 286 286 286 293 297 303 302 301 302 302 304 306 306 311 309 300 302 295 293 303 292 296
207 208 213 215 213 221 215 210 218 223 222 212 214 219 219 220 222 228 240 255 268 280 273 285 295 298 297 295 294 293 297 299 305 303 303 300 298 306 300 292 297 295 300
Height
1527 1529 1532 1536 1539 1542 1544 1546 1547 1548 1550 1551 1553 1554 1555 1558 1558 1560 1563 1562 1561 1562 1562 1563 1563 1563 1563 1564 1564 1564 1563 1564 1563 1564 1563 1561 1560 1561 1559 1559 1558 1557 1557
1523 1527 1531 1534 1538 1540 1544 1547 1547 1549 1550 1551 1554 1555 1556 1559 1561 1561 1564 1564 1564 1563 1564 1564 1566 1566 1565 1565 1564 1565 1567 1566 1565 1565 1563 1562 1561 1561 1560 1559 1559 1558 1559
1525 1527 1531 1534 1538 1540 1543 1546 1547 1550 1551 1552 1554 1556 1557 1558 1563 1563 1565 1567 1568 1566 1566 1567 1568 1568 1569 1568 1566 1568 1569 1568 1568 1566 1565 1563 1563 1562 1562 1561 1560 1559 1560
1525 1528 1531 1533 1536 1540 1544 1545 1549 1550 1551 1553 1556 1556 1558 1560 1564 1565 1567 1569 1570 1568 1567 1570 1569 1572 1572 1570 1570 1572 1573 1572 1570 1568 1567 1567 1565 1564 1564 1564 1562 1562 1561
1527 1530 1533 1534 1536 1541 1544 1547 1550 1551 1551 1555 1558 1558 1560 1563 1565 1566 1570 1570 1571 1571 1570 1572 1572 1573 1574 1571 1573 1573 1575 1575 1573 1571 1570 1569 1567 1566 1565 1564 1565 1564 1561
1527 1530 1534 1537 1534 1539 1546 1549 1551 1552 1552 1555 1558 1559 1563 1565 1566 1569 1571 1573 1573 1573 1572 1574 1576 1577 1575 1574 1574 1575 1576 1574 1575 1573 1573 1571 1570 1568 1567 1566 1565 1565 1562
1527 1532 1533 1542 1538 1537 1547 1551 1553 1555 1556 1555 1558 1560 1563 1565 1568 1570 1572 1574 1576 1575 1574 1575 1577 1577 1578 1579 1576 1577 1578 1576 1575 1574 1572 1571 1570 1569 1567 1566 1566 1565 1562
1528 1534 1535 1537 1541 1541 1547 1552 1554 1557 1557 1556 1558 1561 1564 1565 1568 1570 1573 1575 1577 1578 1576 1578 1578 1578 1579 1580 1580 1578 1578 1576 1575 1575 1575 1572 1571 1569 1567 1566 1564 1564 1563
1530 1533 1528 1537 1541 1546 1548 1552 1554 1556 1558 1558 1560 1562 1565 1567 1569 1572 1573 1575 1577 1579 1580 1579 1579 1578 1582 1581 1581 1581 1578 1578 1576 1574 1574 1573 1572 1569 1567 1565 1566 1562 1562
1530 1530 1539 1543 1546 1551 1552 1554 1556 1557 1560 1562 1563 1564 1566 1568 1570 1572 1575 1577 1578 1579 1580 1580 1580 1581 1581 1581 1581 1579 1578 1578 1578 1574 1575 1573 1571 1568 1567 1565 1565 1562 1560
1535 1539 1542 1546 1550 1555 1554 1556 1558 1560 1561 1562 1563 1565 1568 1570 1573 1575 1575 1577 1579 1581 1580 1580 1581 1582 1581 1580 1580 1578 1578 1577 1575 1574 1573 1572 1571 1568 1565 1566 1562 1562 1559
1535 1541 1542 1551 1552 1555 1556 1557 1559 1561 1562 1563 1566 1567 1568 1571 1573 1575 1576 1579 1581 1580 1579 1580 1580 1580 1580 1580 1579 1578 1577 1575 1574 1573 1571 1571 1570 1568 1564 1563 1561 1560 1558
1540 1542 1544 1551 1553 1555 1557 1558 1559 1561 1564 1565 1567 1568 1569 1572 1574 1576 1576 1579 1581 1581 1580 1580 1579 1579 1579 1579 1578 1576 1577 1574 1573 1572 1570 1570 1568 1567 1564 1561 1559 1558 1557
1538 1540 1546 1550 1554 1556 1558 1560 1561 1561 1564 1565 1567 1567 1569 1571 1574 1577 1574 1577 1580 1580 1580 1579 1579 1579 1576 1579 1575 1576 1574 1573 1571 1572 1568 1568 1566 1565 1563 1560 1558 1556 1555
1539 1545 1546 1549 1553 1555 1558 1561 1562 1562 1565 1566 1566 1568 1569 1569 1573 1576 1575 1576 1579 1580 1579 1578 1579 1577 1577 1576 1575 1573 1572 1571 1569 1568 1567 1564 1564 1563 1562 1559 1556 1555 1552
1541 1544 1547 1551 1552 1555 1556 1560 1562 1563 1564 1565 1568 1568 1569 1570 1573 1574 1576 1575 1576 1578 1577 1577 1575 1576 1575 1574 1573 1571 1570 1570 1567 1565 1563 1562 1562 1562 1561 1559 1556 1554 1553
1537 1542 1545 1549 1552 1555 1557 1559 1562 1564 1563 1566 1568 1568 1569 1571 1571 1571 1574 1575 1575 1574 1575 1575 1573 1574 1575 1573 1571 1569 1567 1566 1564 1562 1559 1560 1560 1560 1558 1556 1554 1553 1552
1538 1540 1545 1548 1551 1555 1556 1560 1562 1562 1562 1566 1567 1568 1568 1570 1568 1571 1571 1573 1573 1572 1572 1571 1571 1572 1571 1570 1566 1564 1564 1564 1562 1561 1559 1558 1557 1557 1555 1554 1552 1551 1549
1536 1538 1542 1546 1550 1553 1556 1558 1561 1560 1561 1565 1565 1566 1565 1566 1567 1568 1569 1570 1570 1570 1569 1569 1570 1569 1566 1564 1562 1561 1561 1561 1560 1559 1559 1558 1556 1555 1554 1552 1550 1548 1546
1535 1538 1541 1544 1549 1551 1554 1556 1558 1558 1561 1563 1563 1563 1562 1564 1565 1566 1567 1568 1568 1568 1569 1567 1567 1564 1563 1561 1560 1559 1558 1558 1558 1557 1557 1556 1555 1553 1552 1549 1547 1545 1542
1533 1535 1538 1541 1545 1547 1550 1552 1554 1556 1558 1560 1560 1559 1562 1562 1562 1564 1566 1567 1567 1567 1565 1563 1563 1563 1562 1560 1557 1556 1555 1555 1554 1554 1555 1553 1552 1550 1548 1546 1543 1541 1539
1531 1535 1537 1540 1542 1544 1547 1551 1553 1554 1555 1557 1557 1558 1560 1560 1561 1564 1565 1565 1564 1562 1561 1561 1561 1561 1560 1558 1556 1553 1551 1551 1549 1549 1548 1548 1547 1547 1544 1542 1540 1538 1536
1528 1532 1535 1539 1540 1542 1546 1549 1550 1551 1551 1552 1554 1556 1557 1558 1561 1562 1562 1561 1561 1560 1560 1559 1558 1557 1556 1556 1554 1553 1550 1547 1545 1544 1544 1543 1543 1543 1541 1538 1536 1534 1533
1523 1528 1532 1535 1538 1541 1544 1544 1545 1547 1547 1549 1552 1554 1556 1557 1558 1558 1557 1556 1556 1556 1556 1555 1554 1553 1552 1551 1550 1549 1548 1546 1543 1539 1540 1540 1539 1538 1537 1535 1532 1530 1527
1518 1522 1528 1531 1535 1539 1540 1540 1542 1545 1547 1549 1551 1552 1552 1554 1553 1553 1553 1553 1553 1554 1553 1552 1550 1549 1547 1547 1545 1545 1543 1541 1540 1538 1531 1532 1532 1531 1530 1529 1528 1526 1523
1517 1520 1524 1529 1532 1534 1535 1538 1539 1542 1544 1545 1546 1547 1549 1550 1551 1551 1551 1552 1553 1550 1550 1549 1547 1543 1542 1542 1541 1539 1537 1535 1533 1532 1529 1526 1524 1523 1523 1523 1522 1520 1517